This is the latest recevied weather packets stored in our database for station/object K1WJY. If no packets are shown the sender has not sent any weather packets the latest 1 day(s).
| Time | Temp. | Humidity | Pressure | Rain* | Wind** | Luminosity | Snow |
|---|---|---|---|---|---|---|---|
| 1778041244 | 11.11° C | 93% | 1012.1 hPa | 0 mm | 1.34 m/s, 160° | 0 W/m² | - |
| 1778040943 | 11.11° C | 93% | 1012 hPa | 0 mm | 1.79 m/s, 266° | 0 W/m² | - |
| 1778040639 | 10.56° C | 93% | 1012 hPa | 0 mm | 1.79 m/s, 191° | 0 W/m² | - |
| 1778040337 | 11.11° C | 93% | 1012.1 hPa | 0 mm | 0.45 m/s, 249° | 0 W/m² | - |
| 1778040032 | 11.11° C | 92% | 1012 hPa | 0 mm | 0.45 m/s, 211° | 0 W/m² | - |
| 1778039730 | 11.11° C | 91% | 1011.8 hPa | 0 mm | 0 m/s | 0 W/m² | - |
| 1778039426 | 10.56° C | 92% | 1012.1 hPa | 0 mm | 1.34 m/s, 216° | 0 W/m² | - |
| 1778039124 | 10.56° C | 92% | 1011.9 hPa | 0 mm | 0.89 m/s, 234° | 0 W/m² | - |
| 1778038820 | 11.11° C | 91% | 1012.1 hPa | 0 mm | 1.34 m/s, 290° | 0 W/m² | - |
| 1778038518 | 10.56° C | 92% | 1012 hPa | 0 mm | 1.79 m/s, 278° | 0 W/m² | - |
| 1778038215 | 11.11° C | 91% | 1012.1 hPa | 0 mm | 0 m/s | 0 W/m² | - |
| 1778037912 | 11.11° C | 91% | 1011.9 hPa | 0 mm | 1.34 m/s, 170° | 0 W/m² | - |
| 1778037608 | 10.56° C | 92% | 1012 hPa | 0 mm | 1.79 m/s, 222° | 0 W/m² | - |
| 1778037307 | 11.11° C | 92% | 1011.6 hPa | 0 mm | 0 m/s | 0 W/m² | - |
| 1778037003 | 11.11° C | 91% | 1011.6 hPa | 0 mm | 1.34 m/s, 179° | 0 W/m² | - |
| 1778036701 | 11.11° C | 91% | 1011.9 hPa | 0 mm | 1.34 m/s, 206° | 0 W/m² | - |
| 1778036398 | 11.11° C | 92% | 1011.8 hPa | 0 mm | 0.89 m/s, 238° | 0 W/m² | - |
| 1778036095 | 11.11° C | 91% | 1011.9 hPa | 0 mm | 1.79 m/s, 305° | 0 W/m² | - |
| 1778035791 | 11.11° C | 91% | 1011.9 hPa | 0 mm | 1.79 m/s, 165° | 0 W/m² | - |
| 1778035488 | 10.56° C | 92% | 1012 hPa | 0 mm | 1.79 m/s, 134° | 0 W/m² | - |
| 1778035184 | 11.11° C | 92% | 1012 hPa | 0 mm | 0.89 m/s, 145° | 0 W/m² | - |
| 1778034881 | 11.11° C | 92% | 1011.9 hPa | 0 mm | 1.34 m/s, 169° | 0 W/m² | - |
| 1778034578 | 11.11° C | 91% | 1011.8 hPa | 0 mm | 1.79 m/s, 106° | 0 W/m² | - |
| 1778034276 | 11.11° C | 91% | 1012 hPa | 0 mm | 2.24 m/s, 217° | 0 W/m² | - |
| 1778033973 | 11.11° C | 91% | 1012 hPa | 0 mm | 1.34 m/s, 132° | 0 W/m² | - |
* Rain latest hour (hover to see other rain measurements)
** Current wind speed in m/s (hover to see current wind gust speed)